Location: Fort Worth, Tx
(32.7431°N, 97.3695°W)
Time: 13:41:35
(UTC-04:00)

Transit 2A - Pass Details

Date: 26 February 2024
Orbit: 596 x 956 km, 66.7° (Epoch: 20 April)

Event Time Altitude Azimuth Distance (km) Brightness Sun altitude
Exits shadow 04:36:19 11° 50° (NE) 2,220 8.9 -43.3°
Maximum altitude 04:36:24 11° 51° (NE) 2,222 8.9 -43.3°
Drops below altitude 10° 04:37:23 10° 62° (ENE) 2,278 9.1 -43.1°
Sets 04:42:21 0° 101° (E) 3,320 9.9 -42.1°
